Regional Weather Roundup
Issued by NWS Northern Indiana

Home | Current Version | Previous Version | Text Only | Print | Product List | Glossary On
Versions: 1 2 3 4 5 6 7 8 9 10 11 12 13 14 15 16 17 18 19 20 21 22 23 24 25 26 27 28 29 30 31 32 33 34 35 36 37 38 39 40 41 42 43 44 45 46 47 48 49 50
000
ASUS43 KIWX 261610
RWRIWX

KIWX WEATHER ROUNDUP
NATIONAL WEATHER SERVICE NORTHERN INDIANA
1200 PM EDT WED JUL 26 2017

NOTE: "FAIR" INDICATES FEW OR NO CLOUDS BELOW 12,000 FEET WITH NO
SIGNIFICANT WEATHER AND/OR OBSTRUCTIONS TO VISIBILITY.

* THESE STATIONS ARE NOT UNDER NWS QUALITY CONTROL. THEY ALSO MAY NOT
  REPORT WEATHER SUCH AS PRECIPITATION OR FOG.

INZ001>027-261700-
NORTHERN INDIANA

CITY           SKY/WX    TMP DP  RH WIND       PRES   REMARKS
GARY*          PTSUNNY   81  63  54 S8        30.09F
VALPARAISO     SUNNY     77  68  73 S8        30.10F
MICHIGAN CITY* MOSUNNY   77  64  65 S7        30.10F
LAPORTE*       MOSUNNY   75  66  73 S8        30.11F
KNOX*          MOSUNNY   77  68  73 S6        30.10F
SOUTH BEND     PTSUNNY   75  65  70 S7        30.12S
ELKHART*       CLOUDY    75  63  64 SW7       30.12F
GOSHEN         MOSUNNY   75  62  64 S8        30.13S
MONTICELLO*    SUNNY     76  66  71 SE3       30.11F
LOGANSPORT*    MOSUNNY   77  66  69 SE3       30.13S
ROCHESTER*     CLOUDY    79  66  65 S6        30.13S
WARSAW*        MOSUNNY   73  64  73 S5        30.14R
AUBURN*        MOSUNNY   75  61  60 CALM      30.15F
FORT WAYNE     PTSUNNY   75  63  66 VRB7      30.15R
HUNTINGTON*    MOSUNNY   75  64  70 CALM      30.14S
PERU/GRISSOM   MOSUNNY   77  67  72 S6        30.11F
MARION*        CLOUDY    75  64  69 S6        30.14F

$$
INZ028>050-261700-
CENTRAL INDIANA

CITY           SKY/WX    TMP DP  RH WIND       PRES   REMARKS
LAFAYETTE      SUNNY     79  69  71 CALM      30.10F
KOKOMO*        MOSUNNY   76  67  73 S7        30.14F
MUNCIE*        SUNNY     79  63  57 VRB3      30.14S
INDIANAPOLIS   CLOUDY    78  66  66 CALM      30.13R

$$
MIZ043>046-050>051-056>058-064>065-071>073-077>080-261700-
SOUTHWEST LOWER MICHIGAN

CITY           SKY/WX    TMP DP  RH WIND       PRES   REMARKS
BATTLE CREEK   PTSUNNY   76  64  66 S12       30.12F
BENTON HARBOR  CLOUDY    77  63  61 S8        30.09F
COLDWATER*     PTSUNNY   75  62  63 SW7       30.14F
HILLSDALE*     CLOUDY    73  61  64 S6        30.15F
HOLLAND        CLOUDY    77  63  61 SW13      30.10S
GRAND RAPIDS   CLOUDY    77  63  61 S14       30.10F
KALAMAZOO      MOSUNNY   76  61  59 S12       30.11F
STURGIS*       CLOUDY    74  64  71 S7        30.14S
THREE RIVERS*  FAIR      74  63  68 S8        30.13F

$$
OHZ001>008-015>018-024>025-261700-
NORTHWEST OHIO

CITY           SKY/WX    TMP DP  RH WIND       PRES   REMARKS
DEFIANCE       PTSUNNY  N/A N/A N/A VRB5      30.15F
FINDLAY        MOSUNNY   75  60  59 S9        30.15F
TOLEDO EXPRESS CLOUDY    74  61  63 S7        30.15F
TOLEDO METCALF PTSUNNY   75  63  66 VRB7      30.16F
LIMA           CLOUDY    73  62  68 SW6       30.16F

$$
AND FOR LAKE MICHIGAN COASTAL AND OPEN LAKE BUOY OBSERVATIONS

STATION/POSITION TEMP    WIND        PRES    VSBY  WAVE
                 AIR SEA DIR/SP/G                  HT/PER
                 (F)     (DEG/KT/KT) (MB)    (MI)  (FT/S)
CALUMET HARBOR    78     230/  6/  8 1018.0F
MICHIGAN CITY     74     170/ 12/ 13   N/A
BURNS HARBOR      77     190/  8/ 12 1019.3F
SAINT JOSEPH      77     220/  5/  8 1020.0
SOUTH LAKE BUOY   71 70  190/ 12/ 14 1018.0F         3/ 5
4 MI NW BRIDGMAN  73 73  210/  6/  8 1018.7          1/ 3
MICHIGAN CITY     74 74  190/  8/ 10   N/A           1/ 2

$$
&&




USA.gov is the U.S. government's official web portal to all federal, state and local government web resources and services.